ADO9251 RJCH-RJFK

Flight info

Callsign ADO9251
Flight time N/A
Altitude 36000
Route TAPPI Y12 KOHWA Y54 TURFY Y24 SUC Y757 SPICA
Aircraft B737/M-SDE2FGHIJ2J4J5LM1ORVWX/LB1

Departure

Time 2026-04-12 08:58
Airport Hakodate Airport (RJCH)

Arrival

Time N/A
Airport Kagoshima Airport (RJFK)
Time Latitude Longitude Altitude Speed Heading
2026-04-12 08:43 41.77519 140.81452 115 ft 0 kts 18°
2026-04-12 08:46 41.77517 140.81451 116 ft 0 kts 18°
2026-04-12 08:46 41.77505 140.81445 113 ft 2 kts 19°
2026-04-12 08:46 41.77488 140.81438 114 ft 2 kts 19°
2026-04-12 08:47 41.77476 140.81432 114 ft 2 kts 19°
2026-04-12 08:47 41.77464 140.81427 113 ft 2 kts 22°
2026-04-12 08:47 41.77453 140.81419 115 ft 2 kts 47°
2026-04-12 08:47 41.77447 140.81406 113 ft 2 kts 84°
2026-04-12 08:48 41.77448 140.81393 114 ft 1 kts 107°
2026-04-12 08:48 41.77448 140.81392 115 ft 0 kts 108°
2026-04-12 08:51 41.77448 140.81394 114 ft 1 kts 108°
2026-04-12 08:51 41.77445 140.81402 113 ft 1 kts 115°
2026-04-12 08:51 41.77441 140.81409 114 ft 2 kts 129°
2026-04-12 08:51 41.77428 140.81420 116 ft 2 kts 148°
2026-04-12 08:52 41.77420 140.81427 115 ft 2 kts 148°
2026-04-12 08:52 41.77402 140.81442 117 ft 4 kts 148°
2026-04-12 08:52 41.77376 140.81467 117 ft 5 kts 140°
2026-04-12 08:52 41.77356 140.81516 121 ft 7 kts 108°
2026-04-12 08:53 41.77339 140.81587 122 ft 10 kts 108°
2026-04-12 08:53 41.77314 140.81690 121 ft 14 kts 108°
2026-04-12 08:53 41.77281 140.81827 123 ft 17 kts 108°
2026-04-12 08:53 41.77240 140.81995 123 ft 21 kts 108°
2026-04-12 08:54 41.77194 140.82183 125 ft 21 kts 108°
2026-04-12 08:54 41.77149 140.82367 130 ft 21 kts 108°
2026-04-12 08:54 41.77103 140.82557 134 ft 21 kts 108°
2026-04-12 08:54 41.77057 140.82746 137 ft 22 kts 108°
2026-04-12 08:55 41.77011 140.82936 140 ft 21 kts 108°
2026-04-12 08:55 41.76966 140.83120 143 ft 20 kts 108°
2026-04-12 08:55 41.76923 140.83296 144 ft 20 kts 108°
2026-04-12 08:55 41.76881 140.83469 146 ft 19 kts 108°
2026-04-12 08:56 41.76840 140.83640 149 ft 19 kts 108°
2026-04-12 08:56 41.76801 140.83800 156 ft 14 kts 108°
2026-04-12 08:56 41.76774 140.83908 159 ft 11 kts 109°
2026-04-12 08:56 41.76714 140.83958 161 ft 11 kts 186°
2026-04-12 08:57 41.76643 140.83926 160 ft 11 kts 199°
2026-04-12 08:57 41.76616 140.83843 156 ft 12 kts 287°
2026-04-12 08:57 41.76666 140.83644 152 ft 49 kts 288°
2026-04-12 08:57 41.76856 140.82865 144 ft 122 kts 288°
2026-04-12 08:58 41.77165 140.81622 556 ft 145 kts 287°
2026-04-12 08:58 41.77343 140.80285 1429 ft 149 kts 266°
2026-04-12 08:58 41.76949 140.79007 2228 ft 158 kts 240°
2026-04-12 08:58 41.76125 140.77901 2777 ft 179 kts 227°
2026-04-12 08:59 41.75083 140.76841 3244 ft 193 kts 225°
2026-04-12 08:59 41.73951 140.75712 3524 ft 214 kts 225°
2026-04-12 08:59 41.72713 140.74476 3878 ft 230 kts 224°
2026-04-12 08:59 41.71373 140.73140 4259 ft 247 kts 224°
2026-04-12 09:00 41.69966 140.71749 5036 ft 253 kts 224°
2026-04-12 09:00 41.68535 140.70338 5865 ft 258 kts 224°
2026-04-12 09:00 41.67085 140.68907 6687 ft 263 kts 225°
2026-04-12 09:00 41.65600 140.67443 7576 ft 267 kts 225°
2026-04-12 09:01 41.64093 140.65957 8510 ft 271 kts 225°
2026-04-12 09:01 41.62564 140.64450 9466 ft 275 kts 226°
2026-04-12 09:01 41.61011 140.62919 10326 ft 280 kts 226°
2026-04-12 09:01 41.59399 140.61316 10677 ft 305 kts 226°
2026-04-12 09:02 41.57623 140.59544 10890 ft 332 kts 225°
2026-04-12 09:02 41.55699 140.57636 11195 ft 353 kts 224°
2026-04-12 09:02 41.53692 140.55665 11852 ft 362 kts 224°
2026-04-12 09:02 41.51643 140.53666 12679 ft 365 kts 224°
2026-04-12 09:03 41.49580 140.51654 13536 ft 369 kts 225°
2026-04-12 09:03 41.47500 140.49623 14312 ft 373 kts 225°
2026-04-12 09:03 41.45396 140.47565 15116 ft 375 kts 225°
2026-04-12 09:03 41.43305 140.45521 15913 ft 378 kts 225°
2026-04-12 09:04 41.41173 140.43435 16713 ft 381 kts 225°
2026-04-12 09:04 41.39026 140.41335 17488 ft 385 kts 225°
2026-04-12 09:04 41.36858 140.39215 18240 ft 388 kts 225°
2026-04-12 09:04 41.34664 140.37072 18891 ft 392 kts 226°
2026-04-12 09:05 41.32457 140.34919 19539 ft 395 kts 226°
2026-04-12 09:05 41.30231 140.32748 20162 ft 398 kts 226°
2026-04-12 09:05 41.27985 140.30560 20786 ft 402 kts 226°
2026-04-12 09:05 41.25747 140.28382 21393 ft 405 kts 227°
2026-04-12 09:06 41.23458 140.26157 21983 ft 409 kts 227°
2026-04-12 09:06 41.21153 140.23918 22552 ft 412 kts 227°
2026-04-12 09:06 41.18943 140.21772 23082 ft 416 kts 227°
2026-04-12 09:06 41.16597 140.19496 23613 ft 419 kts 227°
2026-04-12 09:07 41.14204 140.17229 24057 ft 427 kts 224°
2026-04-12 09:07 41.11401 140.15553 24482 ft 457 kts 207°
2026-04-12 09:07 41.08444 140.14576 24972 ft 461 kts 205°
2026-04-12 09:07 41.05319 140.13572 25402 ft 463 kts 205°
2026-04-12 09:08 41.02186 140.12542 25783 ft 466 kts 205°
2026-04-12 09:08 40.99043 140.11487 26189 ft 468 kts 206°
2026-04-12 09:08 40.95876 140.10408 26600 ft 470 kts 206°
2026-04-12 09:08 40.92705 140.09319 26981 ft 472 kts 206°
2026-04-12 09:09 40.89501 140.08214 27359 ft 474 kts 206°
2026-04-12 09:09 40.86296 140.07109 27737 ft 476 kts 206°
2026-04-12 09:09 40.83074 140.06000 28104 ft 478 kts 206°
2026-04-12 09:09 40.79846 140.04891 28473 ft 480 kts 206°
2026-04-12 09:10 40.76644 140.03793 28856 ft 481 kts 206°
2026-04-12 09:10 40.73523 140.02727 29350 ft 479 kts 206°
2026-04-12 09:10 40.70297 140.01629 29964 ft 475 kts 206°
2026-04-12 09:10 40.67099 140.00541 30503 ft 472 kts 206°
2026-04-12 09:11 40.63940 139.99463 30976 ft 470 kts 206°
2026-04-12 09:11 40.60778 139.98382 31404 ft 468 kts 206°
2026-04-12 09:11 40.57628 139.97306 31841 ft 466 kts 206°
2026-04-12 09:11 40.54527 139.96249 32285 ft 465 kts 206°
2026-04-12 09:12 40.51392 139.95180 32733 ft 463 kts 206°
2026-04-12 09:12 40.48265 139.94116 33153 ft 461 kts 206°
2026-04-12 09:12 40.45161 139.93061 33550 ft 460 kts 206°
2026-04-12 09:12 40.42068 139.92011 33939 ft 458 kts 206°
2026-04-12 09:13 40.39001 139.90969 34282 ft 457 kts 206°
2026-04-12 09:13 40.35962 139.89935 34553 ft 457 kts 206°
2026-04-12 09:13 40.32842 139.88873 34788 ft 458 kts 205°
2026-04-12 09:13 40.30033 139.87917 35009 ft 458 kts 205°
2026-04-12 09:14 40.26950 139.86870 35278 ft 458 kts 205°
2026-04-12 09:14 40.23863 139.85824 35542 ft 458 kts 205°
2026-04-12 09:14 40.20778 139.84779 35772 ft 458 kts 205°
2026-04-12 09:14 40.17687 139.83733 35997 ft 459 kts 205°
2026-04-12 09:15 40.14591 139.82686 36249 ft 458 kts 205°
2026-04-12 09:15 40.11557 139.81662 36487 ft 459 kts 205°
2026-04-12 09:15 40.08505 139.80631 36707 ft 459 kts 205°
2026-04-12 09:15 40.05370 139.79574 36928 ft 459 kts 204°
2026-04-12 09:16 40.02317 139.78546 37155 ft 459 kts 204°
2026-04-12 09:16 39.99211 139.77502 37380 ft 460 kts 204°
2026-04-12 09:16 39.96104 139.76462 37587 ft 460 kts 204°
2026-04-12 09:16 39.92993 139.75424 37793 ft 461 kts 204°
2026-04-12 09:17 39.89887 139.74390 38032 ft 461 kts 204°
2026-04-12 09:17 39.83688 139.72327 38079 ft 462 kts 204°
2026-04-12 09:18 39.77456 139.70258 38076 ft 461 kts 204°
2026-04-12 09:18 39.71239 139.68196 38085 ft 460 kts 204°
2026-04-12 09:19 39.65018 139.66136 38094 ft 460 kts 204°
2026-04-12 09:19 39.58846 139.64095 38095 ft 460 kts 204°
2026-04-12 09:20 39.49581 139.61039 38091 ft 460 kts 204°
2026-04-12 09:21 39.40253 139.57970 38096 ft 460 kts 204°
2026-04-12 09:21 39.34065 139.55939 38105 ft 460 kts 205°
2026-04-12 09:22 39.27841 139.53900 38097 ft 461 kts 205°